Location: Ferchesar
(52.6477°N, 12.4298°E)
Time: 10:06:15
(UTC+01:00)

Tiros 1 - Pass Details

Date: 06 December 2021
Orbit: 629 x 664 km, 48.4° (Epoch: 25 January)

Event Time Altitude Azimuth Distance (km) Brightness Sun altitude
Rises 18:57:56 0° 237° (WSW) 2,918 11.4 -26.2°
Reaches altitude 10° 19:00:22 10° 229° (SW) 2,016 10.3 -26.6°
Enters shadow 19:03:28 32° 195° (SSW) 1,089 8.4 -27.1°
Maximum altitude 19:04:39 38° 162° (SSE) 975 - -27.2°
Drops below altitude 10° 19:08:59 10° 94° (E) 2,040 - -27.9°
Sets 19:11:27 0° 87° (E) 2,957 - -28.3°
